Location: Pace/Milton
(30.6162°N, 87.1503°W)
Time: 15:30:27
(UTC-06:00)

ISS - Pass Details

Date: 06 December 2021
Orbit: 413 x 422 km, 51.6° (Epoch: 28 January)

Event Time Altitude Azimuth Distance (km) Brightness Sun altitude
Rises 18:40:03 0° 316° (NW) 2,373 0.5 -23.7°
Reaches altitude 10° 18:42:10 10° 316° (NW) 1,504 -0.6 -24.1°
Enters shadow 18:43:27 21° 316° (NW) 993 -1.6 -24.4°
